FW7617 Weather Reports


time (UTC)temp
F
wind
direction
speed
knots
gust
knots
rain 1hr
in
rain 24hr
in
rain mn
in
humidity
%
barometer
mb
20260505214516 82 252 6.1 10.4 0.00 0.00 0.00 25 1007.6
20260505213516 83 241 7.0 11.3 0.00 0.00 0.00 24 1007.5
20260505212536 83 252 7.0 12.2 0.00 0.00 0.00 25 1007.5
20260505211517 84 260 6.1 11.3 0.00 0.00 0.00 25 1007.4
20260505210517 84 258 6.1 11.3 0.00 0.00 0.00 25 1007.4
20260505205517 84 246 5.2 10.4 0.00 0.00 0.00 26 1007.5
20260505204517 84 246 5.2 12.2 0.00 0.00 0.00 26 1007.4
20260505203517 84 237 5.2 11.3 0.00 0.00 0.00 26 1007.5
20260505202517 84 254 5.2 9.6 0.00 0.00 0.00 28 1007.4
20260505201518 84 253 6.1 9.6 0.00 0.00 0.00 28 1007.5
20260505200538 84 252 6.1 12.2 0.00 0.00 0.00 28 1007.6
20260505195515 83 257 7.0 11.3 0.00 0.00 0.00 28 1007.7
20260505194515 83 248 7.0 14.8 0.00 0.00 0.00 28 1007.8
20260505193516 84 229 6.1 12.2 0.00 0.00 0.00 28 1007.9
20260505192516 84 254 5.2 11.3 0.00 0.00 0.00 29 1007.9
20260505191516 84 240 4.3 10.4 0.00 0.00 0.00 31 1008.2
20260505190516 83 231 6.1 13.0 0.00 0.00 0.00 30 1008.3
20260505185516 83 224 7.0 17.4 0.00 0.00 0.00 30 1008.3
20260505184536 83 254 7.0 13.0 0.00 0.00 0.00 31 1008.5
20260505183516 83 225 5.2 10.4 0.00 0.00 0.00 32 1008.8
20260505182517 83 224 4.3 10.4 0.00 0.00 0.00 32 1008.8
20260505181517 83 253 5.2 12.2 0.00 0.00 0.00 31 1008.8
20260505180517 83 241 5.2 10.4 0.00 0.00 0.00 32 1008.9
20260505175517 82 260 2.6 6.1 0.00 0.00 0.00 35 1008.9
20260505174517 82 243 5.2 11.3 0.00 0.00 0.00 36 1009.1
20260505173518 82 214 4.3 8.7 0.00 0.00 0.00 36 1009.1
20260505172518 82 251 4.3 7.0 0.00 0.00 0.00 37 1009.2
20260505171538 81 250 4.3 9.6 0.00 0.00 0.00 37 1009.2
20260505170538 82 226 2.6 7.0 0.00 0.00 0.00 37 1009.3
20260505165515 82 230 4.3 7.8 0.00 0.00 0.00 35 1009.4
20260505164515 81 242 3.5 6.1 0.00 0.00 0.00 36 1009.6
20260505163515 81 260 3.5 8.7 0.00 0.00 0.00 37 1009.6
20260505162515 80 255 3.5 7.8 0.00 0.00 0.00 38 1009.8
20260505161516 80 236 5.2 9.6 0.00 0.00 0.00 38 1009.8
20260505160516 80 255 5.2 9.6 0.00 0.00 0.00 38 1010.0
20260505152517 78 251 3.5 7.8 0.00 0.00 0.00 42 1010.4
20260505151517 77 258 2.6 4.3 0.00 0.00 0.00 46 1010.4
20260505150517 76 250 2.6 7.8 0.00 0.00 0.00 44 1010.4
20260505140558 72 256 2.6 6.1 0.00 0.00 0.00 50 1011.2
20260505124516 67 255 1.7 4.3 0.00 0.00 0.00 58 1011.2
20260505123516 67 240 1.7 4.3 0.00 0.00 0.00 60 1011.2
20260505122516 66 204 2.6 4.3 0.00 0.00 0.00 59 1011.0
20260505121516 66 223 1.7 3.5 0.00 0.00 0.00 59 1011.1
20260505120517 65 264 0.9 2.6 0.00 0.00 0.00 63 1011.0
20260505115517 65 268 0.9 4.3 0.00 0.00 0.00 67 1011.2
20260505114517 63 339 0.9 2.6 0.00 0.00 0.00 75 1011.1
20260505113537 61 46 0.9 1.7 0.00 0.00 0.00 78 1011.0
20260505112517 58 28 0.9 2.6 0.00 0.00 0.00 79 1011.0
20260505111518 57 42 0.9 2.6 0.00 0.00 0.00 81 1011.0
20260505110515 56 8 0.9 2.6 0.00 0.00 0.00 82 1011.1
20260505101516 54 72 0.9 1.7 0.00 0.00 0.00 84 1011.0
20260505100516 54 18 0.9 1.7 0.00 0.00 0.00 85 1010.9
20260505095516 54 339 0.9 1.7 0.00 0.00 0.00 85 1010.9
20260505094516 54 342 0.9 1.7 0.00 0.00 0.00 84 1010.9
20260505093516 55 338 0.9 1.7 0.00 0.00 0.00 82 1010.7
20260505092516 55 49 0.9 1.7 0.00 0.00 0.00 80 1010.2
20260505091537 55 31 0.9 3.5 0.00 0.00 0.00 81 1010.1
20260505090517 55 39 0.9 2.6 0.00 0.00 0.00 82 1010.1
20260505085516 54 56 0.9 1.7 0.00 0.00 0.00 83 1010.1
20260505084517 54 72 0.9 2.6 0.00 0.00 0.00 84 1010.1
20260505083517 53 32 0.0 1.7 0.00 0.00 0.00 84 1010.2
20260505082517 53 67 0.9 1.7 0.00 0.00 0.00 85 1010.1
20260505081518 53 360 0.9 1.7 0.00 0.00 0.00 84 1010.1
20260505080518 53 13 0.9 1.7 0.00 0.00 0.00 84 1010.1
20260505075518 53 22 0.9 0.9 0.00 0.00 0.00 83 1010.2
20260505074515 54 51 0.9 0.9 0.00 0.00 0.00 82 1010.1
20260505073515 54 21 0.9 1.7 0.00 0.00 0.00 81 1010.1
20260505072516 54 10 0.9 1.7 0.00 0.00 0.00 81 1010.1
20260505071516 54 51 0.0 0.9 0.00 0.00 0.00 80 1010.0
20260505070516 55 60 0.9 1.7 0.00 0.00 0.00 79 1010.0
20260505065516 56 17 0.9 1.7 0.00 0.00 0.00 77 1010.0
20260505064517 56 5 0.9 2.6 0.00 0.00 0.00 74 1010.0
20260505063517 57 13 0.9 2.6 0.00 0.00 0.00 72 1010.0
20260505062517 58 66 1.7 5.2 0.00 0.00 0.00 71 1010.0
20260505061517 59 44 0.9 1.7 0.00 0.00 0.00 69 1010.1
20260505060518 58 25 0.9 4.3 0.00 0.00 0.00 68 1010.0
20260505055518 58 229 0.9 3.5 0.00 0.00 0.00 69 1010.1
20260505054518 56 97 0.9 3.5 0.00 0.00 0.00 71 1010.2
20260505053515 55 18 1.7 3.5 0.00 0.00 0.00 74 1010.2
20260505052518 55 75 0.9 3.5 0.00 0.00 0.00 75 1010.2
20260505051515 55 49 0.9 2.6 0.00 0.00 0.00 74 1010.3
20260505050535 55 9 0.9 2.6 0.00 0.00 0.00 72 1010.3
20260505041517 56 4 0.9 2.6 0.00 0.00 0.00 66 1010.4
20260505040536 57 22 0.9 1.7 0.00 0.00 0.00 65 1010.4
20260505035517 58 7 0.9 2.6 0.00 0.00 0.00 63 1010.4
20260505034517 58 356 0.9 2.6 0.00 0.00 0.00 61 1010.4
20260505033517 58 42 0.9 2.6 0.00 0.00 0.00 61 1010.4
20260505032517 58 56 0.9 2.6 0.00 0.00 0.00 58 1010.4
20260505031538 58 38 0.9 2.6 0.00 0.00 0.00 59 1010.4
20260505030518 59 7 0.9 2.6 0.00 0.00 0.00 57 1010.4
20260505025518 59 352 0.9 2.6 0.00 0.00 0.00 55 1010.5
20260505024515 59 37 0.9 2.6 0.00 0.00 0.00 54 1010.5
20260505023518 59 52 0.9 2.6 0.00 0.00 0.00 53 1010.6
20260505022518 60 45 0.9 2.6 0.00 0.00 0.00 52 1010.6
20260505021515 60 53 0.9 2.6 0.00 0.00 0.00 51 1010.7
20260505020516 60 48 0.9 3.5 0.00 0.00 0.00 52 1010.7
20260505015516 60 68 0.9 1.7 0.00 0.00 0.00 52 1010.6
20260505014556 60 58 0.9 2.6 0.00 0.00 0.00 51 1010.5
20260505013516 61 60 1.7 2.6 0.00 0.00 0.00 49 1010.4
20260505012516 62 55 0.9 2.6 0.00 0.00 0.00 48 1010.3
20260505011516 62 29 0.9 2.6 0.00 0.00 0.00 48 1010.2
20260505010517 62 54 0.9 2.6 0.00 0.00 0.00 47 1010.1
20260505005516 63 46 0.9 1.7 0.00 0.00 0.00 47 1010.0
20260505004517 64 359 0.9 1.7 0.00 0.00 0.00 44 1009.9
20260505003517 66 339 0.0 1.7 0.00 0.00 0.00 40 1009.8
20260505002517 67 280 0.0 1.7 0.00 0.00 0.00 38 1009.7
20260505001537 68 266 0.9 2.6 0.00 0.00 0.00 37 1009.7
20260505000517 69 257 1.7 5.2 0.00 0.00 0.00 36 1009.5
20260504235538 69 253 1.7 4.3 0.00 0.00 0.00 34 1009.4
20260504234538 70 247 1.7 3.5 0.00 0.00 0.00 34 1009.2
20260504233515 70 251 2.6 7.0 0.00 0.00 0.00 34 1009.1
20260504232515 71 240 2.6 6.1 0.00 0.00 0.00 32 1009.0
20260504231515 71 259 2.6 7.0 0.00 0.00 0.00 33 1009.0
20260504230515 71 251 3.5 7.8 0.00 0.00 0.00 33 1008.9
20260504225516 72 224 3.5 7.8 0.00 0.00 0.00 32 1008.8
20260504224516 72 260 3.5 6.1 0.00 0.00 0.00 32 1008.8
20260504223516 72 255 2.6 7.0 0.00 0.00 0.00 32 1008.9
20260504222516 72 261 3.5 7.0 0.00 0.00 0.00 32 1008.9
20260504221556 72 262 3.5 7.0 0.00 0.00 0.00 32 1008.9
20260504220536 73 262 3.5 8.7 0.00 0.00 0.00 31 1009.0
20260504215517 73 223 4.3 7.8 0.00 0.00 0.00 30 1009.0